TimePDT,TemperatureF,Dew PointF,Humidity,Sea Level PressureIn,VisibilityMPH,Wind Direction,Wind SpeedMPH,Gust SpeedMPH,PrecipitationIn,Events,Conditions,WindDirDegrees,DateUTC
12:54 AM,57.0,54.0,89,29.60,10.0,SE,8.1,-,0.02,,Overcast,140,2011-10-05 07:54:00
1:50 AM,55.4,53.6,94,29.62,2.0,North,3.5,-,0.17,Rain,Heavy Rain,360,2011-10-05 08:50:00
1:54 AM,55.9,54.0,93,29.61,2.5,NW,8.1,-,0.19,Rain,Rain,320,2011-10-05 08:54:00
2:00 AM,55.4,53.6,94,29.64,1.5,NW,5.8,-,0.11,Rain,Heavy Rain,310,2011-10-05 09:00:00
2:07 AM,57.2,55.4,94,29.63,1.2,SSW,15.0,18.4,0.16,Rain,Heavy Rain,210,2011-10-05 09:07:00
2:12 AM,57.2,55.4,94,29.63,2.5,SW,16.1,-,0.20,Rain,Heavy Rain,220,2011-10-05 09:12:00
2:19 AM,57.2,55.4,94,29.63,2.5,SSW,18.4,-,0.25,Rain,Heavy Rain,210,2011-10-05 09:19:00
2:24 AM,57.2,53.6,88,29.63,3.0,SSW,17.3,-,0.27,Rain,Heavy Rain,200,2011-10-05 09:24:00
2:54 AM,57.9,55.0,90,29.60,10.0,SW,13.8,-,0.29,,Overcast,220,2011-10-05 09:54:00
3:09 AM,57.2,53.6,88,29.63,10.0,West,11.5,-,N/A,,Overcast,260,2011-10-05 10:09:00
3:54 AM,55.0,51.1,86,29.60,10.0,West,12.7,-,N/A,,Scattered Clouds,260,2011-10-05 10:54:00
4:54 AM,54.0,50.0,86,29.63,10.0,West,11.5,-,N/A,,Clear,270,2011-10-05 11:54:00
6:54 AM,52.0,48.9,89,29.68,10.0,WSW,5.8,-,N/A,,Mostly Cloudy,240,2011-10-05 13:54:00
7:54 AM,54.0,51.1,90,29.70,10.0,WSW,3.5,-,N/A,,Clear,240,2011-10-05 14:54:00
8:54 AM,55.9,51.1,84,29.73,10.0,West,5.8,-,N/A,,Scattered Clouds,260,2011-10-05 15:54:00
9:54 AM,57.9,51.1,78,29.75,10.0,West,6.9,-,N/A,,Scattered Clouds,270,2011-10-05 16:54:00
10:54 AM,63.0,51.1,65,29.75,10.0,SW,6.9,-,N/A,,Mostly Cloudy,220,2011-10-05 17:54:00
11:54 AM,66.0,46.9,50,29.75,10.0,West,13.8,19.6,N/A,,Mostly Cloudy,270,2011-10-05 18:54:00
1:54 PM,57.0,50.0,77,29.77,10.0,West,10.4,-,0.01,Rain,Light Rain,280,2011-10-05 20:54:00
2:54 PM,61.0,50.0,67,29.75,10.0,SSW,5.8,-,0.00,,Mostly Cloudy,210,2011-10-05 21:54:00
3:54 PM,64.0,46.9,54,29.74,10.0,WSW,15.0,23.0,N/A,,Mostly Cloudy,250,2011-10-05 22:54:00
4:54 PM,59.0,48.9,69,29.75,10.0,NW,11.5,20.7,0.00,Rain,Light Rain,320,2011-10-05 23:54:00
5:54 PM,61.0,48.9,64,29.74,10.0,West,9.2,-,0.00,,Mostly Cloudy,270,2011-10-06 00:54:00
6:54 PM,57.9,48.9,72,29.76,10.0,West,6.9,-,N/A,,Scattered Clouds,260,2011-10-06 01:54:00
7:54 PM,55.0,48.0,77,29.78,10.0,WSW,8.1,-,N/A,,Clear,250,2011-10-06 02:54:00
8:54 PM,52.0,46.9,83,29.81,10.0,Calm,Calm,-,N/A,,Clear,0,2011-10-06 03:54:00
9:54 PM,53.1,48.0,83,29.82,10.0,Calm,Calm,-,N/A,,Clear,0,2011-10-06 04:54:00
10:54 PM,50.0,46.0,86,29.83,10.0,Calm,Calm,-,N/A,,Clear,0,2011-10-06 05:54:00
11:54 PM,48.9,46.0,90,29.84,10.0,WSW,4.6,-,N/A,,Clear,250,2011-10-06 06:54:00